Simultaneous Nadir Overpasses (SNOs) Predictions

Prediction of SNOs between LANDSAT-8 and METOP-B Satellite Orbit:

Table of predicted SNOs for the next 14.0 days since TLE Epoch: 2/15/2020
Index Date (LANDSAT-8) Time (LANDSAT-8) Lat,Lon (LANDSAT-8) SZA (LANDSAT-8 ) Date (METOP-B) Time (METOP-B) Lat,Lon (METOP-B) SZA (METOP-B ) Distance(km) Time Diff (sec)
1 02/17/2020 04:19:53 -81.10, -25.63 85.12 02/17/2020 04:19:31 -81.10, -25.64 85.13 0.51 22
2 02/17/2020 05:09:19 81.11, 142.08 94.88 02/17/2020 05:10:10 81.11, 142.18 94.92 1.83 51
3 02/19/2020 23:54:08 -81.10, 40.71 86.12 02/19/2020 23:53:55 -81.09, 40.58 86.14 2.28 13
4 02/20/2020 00:43:33 81.12,-151.24 93.93 02/20/2020 00:44:33 81.12,-151.25 93.95 0.28 60
5 02/22/2020 19:28:21 -81.11, 107.39 87.09 02/22/2020 19:28:16 -81.11, 107.54 87.08 2.51 5
6 02/22/2020 20:17:47 81.11, -84.95 92.91 02/22/2020 20:18:56 81.11, -85.06 92.92 1.97 69
7 02/25/2020 14:13:10 81.08, 5.67 91.83 02/25/2020 14:12:01 81.07, 5.49 91.78 3.29 69
8 02/25/2020 15:02:36 -81.10, 173.69 88.13 02/25/2020 15:02:40 -81.10, 173.73 88.13 0.72 4
9 02/28/2020 09:47:24 81.09, 72.30 90.82 02/28/2020 09:46:23 81.09, 72.41 90.81 2.02 61




NCC Satellite Simultaneous Nadir Overpasses (SNOs) Prediction Service
